This is the latest recevied weather packets stored in our database for station/object K5OLV. If no packets are shown the sender has not sent any weather packets the latest 10 day(s).
| Time | Temp. | Humidity | Pressure | Rain* | Wind** | Luminosity | Snow |
|---|---|---|---|---|---|---|---|
| 1777904607 | 17.22° C | 57% | 1015 hPa | 0 mm | - | 608 W/m² | - |
| 1777904304 | 16.67° C | 58% | 1015.1 hPa | 0 mm | - | 622 W/m² | - |
| 1777904001 | 16.11° C | 59% | 1015.2 hPa | 0 mm | - | 578 W/m² | - |
| 1777903698 | 16.11° C | 59% | 1015.2 hPa | 0 mm | - | 542 W/m² | - |
| 1777903394 | 16.11° C | 59% | 1015.1 hPa | 0 mm | - | 541 W/m² | - |
| 1777903091 | 16.11° C | 59% | 1015.1 hPa | 0 mm | - | 500 W/m² | - |
| 1777902787 | 16.11° C | 59% | 1015.4 hPa | 0 mm | - | 432 W/m² | - |
| 1777902485 | 16.11° C | 59% | 1015.1 hPa | 0 mm | - | 467 W/m² | - |
| 1777902181 | 15.56° C | 59% | 1015.4 hPa | 0 mm | - | 425 W/m² | - |
| 1777901879 | 15.56° C | 58% | 1015.3 hPa | 0 mm | - | 400 W/m² | - |
| 1777901576 | 15.56° C | 59% | 1015.2 hPa | 0 mm | - | 366 W/m² | - |
| 1777901274 | 15.56° C | 58% | 1015.2 hPa | 0 mm | - | 364 W/m² | - |
| 1777900971 | 15.56° C | 58% | 1015.2 hPa | 0 mm | - | 344 W/m² | - |
| 1777900668 | 15.56° C | 59% | 1015.1 hPa | 0 mm | - | 317 W/m² | - |
| 1777900366 | 15.56° C | 58% | 1015.2 hPa | 0 mm | - | 319 W/m² | - |
| 1777900063 | 15.56° C | 58% | 1014.9 hPa | 0 mm | - | 230 W/m² | - |
| 1777899758 | 15.56° C | 58% | 1014.9 hPa | 0 mm | - | 252 W/m² | - |
| 1777899455 | 15° C | 58% | 1015.1 hPa | 0 mm | - | 251 W/m² | - |
| 1777899153 | 15° C | 57% | 1015.2 hPa | 0 mm | - | 108 W/m² | - |
| 1777898851 | 15° C | 59% | 1015 hPa | 0 mm | - | 219 W/m² | - |
| 1777898548 | 14.44° C | 58% | 1014.9 hPa | 0 mm | - | 185 W/m² | - |
| 1777898246 | 14.44° C | 60% | 1015 hPa | 0 mm | - | 180 W/m² | - |
| 1777897943 | 13.89° C | 60% | 1014.8 hPa | 0 mm | - | 172 W/m² | - |
| 1777897639 | 13.89° C | 60% | 1014.9 hPa | 0 mm | - | 111 W/m² | - |
| 1777897335 | 13.89° C | 60% | 1014.7 hPa | 0 mm | - | 63 W/m² | - |
* Rain latest hour (hover to see other rain measurements)
** Current wind speed in m/s (hover to see current wind gust speed)